TimeMST,TemperatureF,Dew PointF,Humidity,Sea Level PressureIn,VisibilityMPH,Wind Direction,Wind SpeedMPH,Gust SpeedMPH,PrecipitationIn,Events,Conditions,WindDirDegrees,DateUTC
12:53 AM,46.0,32.0,58,29.86,10.0,SE,6.9,-,N/A,,Clear,140,2013-11-20 07:53:00
1:53 AM,46.0,32.0,58,29.85,10.0,Calm,Calm,-,N/A,,Clear,0,2013-11-20 08:53:00
2:53 AM,45.0,32.0,60,29.84,10.0,Calm,Calm,-,N/A,,Clear,0,2013-11-20 09:53:00
3:53 AM,44.1,32.0,63,29.85,8.0,SW,3.5,-,N/A,,Clear,220,2013-11-20 10:53:00
4:53 AM,45.0,32.0,60,29.83,10.0,SSE,3.5,-,N/A,,Clear,160,2013-11-20 11:53:00
5:53 AM,45.0,33.1,63,29.84,10.0,Calm,Calm,-,N/A,,Clear,0,2013-11-20 12:53:00
6:53 AM,44.1,33.1,65,29.84,8.0,SSW,3.5,-,N/A,,Clear,200,2013-11-20 13:53:00
7:53 AM,44.1,32.0,63,29.86,10.0,East,4.6,-,N/A,,Scattered Clouds,100,2013-11-20 14:53:00
8:53 AM,46.9,33.1,59,29.86,10.0,Calm,Calm,-,N/A,,Clear,0,2013-11-20 15:53:00
9:53 AM,46.9,33.1,59,29.86,10.0,WNW,3.5,-,N/A,,Partly Cloudy,290,2013-11-20 16:53:00
10:53 AM,48.9,34.0,56,29.86,10.0,Variable,3.5,-,N/A,,Mostly Cloudy,0,2013-11-20 17:53:00
11:53 AM,48.0,34.0,58,29.85,10.0,Calm,Calm,-,0.00,Rain,Light Rain,0,2013-11-20 18:53:00
12:53 PM,48.9,35.1,59,29.81,10.0,Calm,Calm,-,0.00,Rain,Light Rain,0,2013-11-20 19:53:00
1:53 PM,48.9,39.0,69,29.81,8.0,Calm,Calm,-,0.01,Rain,Light Rain,0,2013-11-20 20:53:00
2:53 PM,51.1,36.0,56,29.80,10.0,Calm,Calm,-,0.00,,Overcast,0,2013-11-20 21:53:00
3:53 PM,50.0,37.9,63,29.81,10.0,NW,3.5,-,N/A,,Overcast,310,2013-11-20 22:53:00
4:53 PM,50.0,37.0,61,29.81,10.0,Calm,Calm,-,N/A,,Overcast,0,2013-11-20 23:53:00
5:53 PM,48.9,37.9,66,29.83,10.0,Calm,Calm,-,N/A,,Overcast,0,2013-11-21 00:53:00
6:53 PM,48.0,39.0,71,29.84,10.0,South,4.6,-,N/A,,Overcast,170,2013-11-21 01:53:00
7:53 PM,48.0,37.9,68,29.85,10.0,Calm,Calm,-,N/A,,Overcast,0,2013-11-21 02:53:00
8:53 PM,48.0,39.0,71,29.84,10.0,South,3.5,-,N/A,,Overcast,180,2013-11-21 03:53:00
9:53 PM,48.0,39.0,71,29.84,10.0,Calm,Calm,-,N/A,,Overcast,0,2013-11-21 04:53:00
10:53 PM,48.0,39.0,71,29.84,10.0,Calm,Calm,-,N/A,,Overcast,0,2013-11-21 05:53:00
11:53 PM,46.9,39.9,77,29.84,10.0,SSE,3.5,-,N/A,,Overcast,150,2013-11-21 06:53:00